Year,Month,Day,Hour,Minute,Value (Times are PST for temperature in C)
2009,05,28,00,00,10.00
2009,05,28,00,01,9.90
2009,05,28,00,02,9.90
2009,05,28,00,03,9.80
2009,05,28,00,04,9.80
2009,05,28,00,05,9.70
2009,05,28,00,06,9.70
2009,05,28,00,07,9.70
2009,05,28,00,08,9.60
2009,05,28,00,09,9.60
2009,05,28,00,10,9.60
2009,05,28,00,11,9.60
2009,05,28,00,12,9.60
2009,05,28,00,13,9.60
2009,05,28,00,14,9.50
2009,05,28,00,15,9.50
2009,05,28,00,16,9.50
2009,05,28,00,17,9.40
2009,05,28,00,18,9.40
2009,05,28,00,19,9.40
2009,05,28,00,20,9.30
2009,05,28,00,21,9.30
2009,05,28,00,22,9.30
2009,05,28,00,23,9.30
2009,05,28,00,24,9.30
2009,05,28,00,25,9.20
2009,05,28,00,26,9.20
2009,05,28,00,27,9.20
2009,05,28,00,28,9.20
2009,05,28,00,29,9.10
2009,05,28,00,30,9.10
2009,05,28,00,31,9.10
2009,05,28,00,32,9.10
2009,05,28,00,33,9.10
2009,05,28,00,34,9.10
2009,05,28,00,35,9.20
2009,05,28,00,36,9.20
2009,05,28,00,37,9.20
2009,05,28,00,38,9.20
2009,05,28,00,39,9.20
2009,05,28,00,40,9.20
2009,05,28,00,41,9.20
2009,05,28,00,42,9.20
2009,05,28,00,43,9.20
2009,05,28,00,44,9.20
2009,05,28,00,45,9.20
2009,05,28,00,46,9.20
2009,05,28,00,47,9.10
2009,05,28,00,48,9.10
2009,05,28,00,49,9.10
2009,05,28,00,50,9.20
2009,05,28,00,51,9.20
2009,05,28,00,52,9.20
2009,05,28,00,53,9.30
2009,05,28,00,54,9.30
2009,05,28,00,55,9.40
2009,05,28,00,56,9.40
2009,05,28,00,57,9.40
2009,05,28,00,58,9.40
2009,05,28,00,59,9.30
2009,05,28,01,00,9.30
2009,05,28,01,01,9.30
2009,05,28,01,02,9.30
2009,05,28,01,03,9.20
2009,05,28,01,04,9.20
2009,05,28,01,05,9.10
2009,05,28,01,06,9.10
2009,05,28,01,07,9.10
2009,05,28,01,08,9.00
2009,05,28,01,09,9.00
2009,05,28,01,10,8.90
2009,05,28,01,11,8.90
2009,05,28,01,12,8.90
2009,05,28,01,13,8.90
2009,05,28,01,14,8.90
2009,05,28,01,15,8.90
2009,05,28,01,16,8.90
2009,05,28,01,17,8.90
2009,05,28,01,18,8.90
2009,05,28,01,19,8.90
2009,05,28,01,20,8.90
2009,05,28,01,21,8.90
2009,05,28,01,22,8.80
2009,05,28,01,23,8.80
2009,05,28,01,24,8.80
2009,05,28,01,25,8.80
2009,05,28,01,26,8.80
2009,05,28,01,27,8.80
2009,05,28,01,28,8.80
2009,05,28,01,29,8.80
2009,05,28,01,30,8.80
2009,05,28,01,31,8.70
2009,05,28,01,32,8.70
2009,05,28,01,33,8.70
2009,05,28,01,34,8.70
2009,05,28,01,35,8.70
2009,05,28,01,36,8.70
2009,05,28,01,37,8.60
2009,05,28,01,38,8.60
2009,05,28,01,39,8.60
2009,05,28,01,40,8.60
2009,05,28,01,41,8.60
2009,05,28,01,42,8.60
2009,05,28,01,43,8.60
2009,05,28,01,44,8.60
2009,05,28,01,45,8.50
2009,05,28,01,46,8.50
2009,05,28,01,47,8.50
2009,05,28,01,48,8.40
2009,05,28,01,49,8.40
2009,05,28,01,50,8.40
2009,05,28,01,51,8.40
2009,05,28,01,52,8.40
2009,05,28,01,53,8.40
2009,05,28,01,54,8.40
2009,05,28,01,55,8.40
2009,05,28,01,56,8.40
2009,05,28,01,57,8.40
2009,05,28,01,58,8.40
2009,05,28,01,59,8.40
2009,05,28,02,00,8.40
2009,05,28,02,01,8.40
2009,05,28,02,02,8.40
2009,05,28,02,03,8.40
2009,05,28,02,04,8.40
2009,05,28,02,05,8.40
2009,05,28,02,06,8.40
2009,05,28,02,07,8.40
2009,05,28,02,08,8.40
2009,05,28,02,09,8.40
2009,05,28,02,10,8.40
2009,05,28,02,11,8.40
2009,05,28,02,12,8.40
2009,05,28,02,13,8.40
2009,05,28,02,14,8.40
2009,05,28,02,15,8.40
2009,05,28,02,16,8.50
2009,05,28,02,17,8.40
2009,05,28,02,18,8.40
2009,05,28,02,19,8.40
2009,05,28,02,20,8.40
2009,05,28,02,21,8.40
2009,05,28,02,22,8.40
2009,05,28,02,23,8.40
2009,05,28,02,24,8.30
2009,05,28,02,25,8.30
2009,05,28,02,26,8.30
2009,05,28,02,27,8.30
2009,05,28,02,28,8.30
2009,05,28,02,29,8.30
2009,05,28,02,30,8.30
2009,05,28,02,31,8.20
2009,05,28,02,32,8.20
2009,05,28,02,33,8.20
2009,05,28,02,34,8.20
2009,05,28,02,35,8.20
2009,05,28,02,36,8.20
2009,05,28,02,37,8.10
2009,05,28,02,38,8.10
2009,05,28,02,39,8.10
2009,05,28,02,40,8.10
2009,05,28,02,41,8.10
2009,05,28,02,42,8.00
2009,05,28,02,43,8.00
2009,05,28,02,44,8.00
2009,05,28,02,45,8.00
2009,05,28,02,46,7.90
2009,05,28,02,47,7.90
2009,05,28,02,48,7.90
2009,05,28,02,49,7.90
2009,05,28,02,50,7.90
2009,05,28,02,51,7.80
2009,05,28,02,52,7.80
2009,05,28,02,53,7.80
2009,05,28,02,54,7.80
2009,05,28,02,55,7.80
2009,05,28,02,56,7.80
2009,05,28,02,57,7.80
2009,05,28,02,58,7.80
2009,05,28,02,59,7.80
2009,05,28,03,00,7.80
2009,05,28,03,01,7.80
2009,05,28,03,02,7.80
2009,05,28,03,03,7.70
2009,05,28,03,04,7.70
2009,05,28,03,05,7.70
2009,05,28,03,06,7.80
2009,05,28,03,07,7.80
2009,05,28,03,08,7.80
2009,05,28,03,09,7.80
2009,05,28,03,10,7.80
2009,05,28,03,11,7.80
2009,05,28,03,12,7.80
2009,05,28,03,13,7.80
2009,05,28,03,14,7.80
2009,05,28,03,15,7.70
2009,05,28,03,16,7.70
2009,05,28,03,17,7.70
2009,05,28,03,18,7.70
2009,05,28,03,19,7.70
2009,05,28,03,20,7.70
2009,05,28,03,21,7.70
2009,05,28,03,22,7.70
2009,05,28,03,23,7.70
2009,05,28,03,24,7.70
2009,05,28,03,25,7.70
2009,05,28,03,26,7.70
2009,05,28,03,27,7.70
2009,05,28,03,28,7.70
2009,05,28,03,29,7.70
2009,05,28,03,30,7.70
2009,05,28,03,31,7.70
2009,05,28,03,32,7.70
2009,05,28,03,33,7.70
2009,05,28,03,34,7.70
2009,05,28,03,35,7.70
2009,05,28,03,36,7.60
2009,05,28,03,37,7.60
2009,05,28,03,38,7.60
2009,05,28,03,39,7.60
2009,05,28,03,40,7.60
2009,05,28,03,41,7.60
2009,05,28,03,42,7.60
2009,05,28,03,43,7.60
2009,05,28,03,44,7.60
2009,05,28,03,45,7.60
2009,05,28,03,46,7.70
2009,05,28,03,47,7.60
2009,05,28,03,48,7.60
2009,05,28,03,49,7.60
2009,05,28,03,50,7.60
2009,05,28,03,51,7.60
2009,05,28,03,52,7.50
2009,05,28,03,53,7.50
2009,05,28,03,54,7.50
2009,05,28,03,55,7.50
2009,05,28,03,56,7.50
2009,05,28,03,57,7.40
2009,05,28,03,58,7.40
2009,05,28,03,59,7.40
2009,05,28,04,00,7.40
2009,05,28,04,01,7.40
2009,05,28,04,02,7.30
2009,05,28,04,03,7.30
2009,05,28,04,04,7.30
2009,05,28,04,05,7.30
2009,05,28,04,06,7.30
2009,05,28,04,07,7.40
2009,05,28,04,08,7.40
2009,05,28,04,09,7.40
2009,05,28,04,10,7.40
2009,05,28,04,11,7.50
2009,05,28,04,12,7.50
2009,05,28,04,13,7.50
2009,05,28,04,14,7.50
2009,05,28,04,15,7.50
2009,05,28,04,16,7.50
2009,05,28,04,17,7.50
2009,05,28,04,18,7.50
2009,05,28,04,19,7.50
2009,05,28,04,20,7.50
2009,05,28,04,21,7.60
2009,05,28,04,22,7.60
2009,05,28,04,23,7.70
2009,05,28,04,24,7.70
2009,05,28,04,25,7.80
2009,05,28,04,26,7.90
2009,05,28,04,27,7.90
2009,05,28,04,28,8.00
2009,05,28,04,29,8.00
2009,05,28,04,30,8.00
2009,05,28,04,31,8.10
2009,05,28,04,32,8.10
2009,05,28,04,33,8.10
2009,05,28,04,34,8.10
2009,05,28,04,35,8.00
2009,05,28,04,36,8.00
2009,05,28,04,37,8.00
2009,05,28,04,38,8.00
2009,05,28,04,39,8.00
2009,05,28,04,40,8.00
2009,05,28,04,41,8.00
2009,05,28,04,42,8.00
2009,05,28,04,43,8.00
2009,05,28,04,44,8.00
2009,05,28,04,45,8.00
2009,05,28,04,46,8.10
2009,05,28,04,47,8.10
2009,05,28,04,48,8.10
2009,05,28,04,49,8.10
2009,05,28,04,50,8.10
2009,05,28,04,51,8.20
2009,05,28,04,52,8.20
2009,05,28,04,53,8.20
2009,05,28,04,54,8.30
2009,05,28,04,55,8.30
2009,05,28,04,56,8.30
2009,05,28,04,57,8.30
2009,05,28,04,58,8.30
2009,05,28,04,59,8.30
2009,05,28,05,00,8.30
2009,05,28,05,01,8.30
2009,05,28,05,02,8.40
2009,05,28,05,03,8.40
2009,05,28,05,04,8.40
2009,05,28,05,05,8.40
2009,05,28,05,06,8.40
2009,05,28,05,07,8.40
2009,05,28,05,08,8.40
2009,05,28,05,09,8.40
2009,05,28,05,10,8.40
2009,05,28,05,11,8.40
2009,05,28,05,12,8.40
2009,05,28,05,13,8.40
2009,05,28,05,14,8.40
2009,05,28,05,15,8.50
2009,05,28,05,16,8.50
2009,05,28,05,17,8.60
2009,05,28,05,18,8.60
2009,05,28,05,19,8.60
2009,05,28,05,20,8.60
2009,05,28,05,21,8.70
2009,05,28,05,22,8.70
2009,05,28,05,23,8.70
2009,05,28,05,24,8.70
2009,05,28,05,25,8.70
2009,05,28,05,26,8.70
2009,05,28,05,27,8.70
2009,05,28,05,28,8.70
2009,05,28,05,29,8.70
2009,05,28,05,30,8.70
2009,05,28,05,31,8.70
2009,05,28,05,32,8.70
2009,05,28,05,33,8.70
2009,05,28,05,34,8.70
2009,05,28,05,35,8.70
2009,05,28,05,36,8.70
2009,05,28,05,37,8.70
2009,05,28,05,38,8.70
2009,05,28,05,39,8.70
2009,05,28,05,40,8.70
2009,05,28,05,41,8.80
2009,05,28,05,42,8.80
2009,05,28,05,43,8.80
2009,05,28,05,44,8.80
2009,05,28,05,45,8.80
2009,05,28,05,46,8.80
2009,05,28,05,47,8.80
2009,05,28,05,48,8.80
2009,05,28,05,49,8.90
2009,05,28,05,50,8.90
2009,05,28,05,51,8.90
2009,05,28,05,52,8.90
2009,05,28,05,53,8.90
2009,05,28,05,54,8.90
2009,05,28,05,55,8.90
2009,05,28,05,56,8.90
2009,05,28,05,57,8.90
2009,05,28,05,58,8.90
2009,05,28,05,59,8.90
2009,05,28,06,00,8.90
2009,05,28,06,01,8.90
2009,05,28,06,02,8.90
2009,05,28,06,03,8.90
2009,05,28,06,04,8.90
2009,05,28,06,05,8.90
2009,05,28,06,06,8.90
2009,05,28,06,07,9.00
2009,05,28,06,08,9.00
2009,05,28,06,09,9.00
2009,05,28,06,10,9.00
2009,05,28,06,11,9.00
2009,05,28,06,12,9.00
2009,05,28,06,13,9.00
2009,05,28,06,14,9.00
2009,05,28,06,15,9.00
2009,05,28,06,16,9.10
2009,05,28,06,17,9.10
2009,05,28,06,18,9.10
2009,05,28,06,19,9.10
2009,05,28,06,20,9.10
2009,05,28,06,21,9.10
2009,05,28,06,22,9.10
2009,05,28,06,23,9.10
2009,05,28,06,24,9.10
2009,05,28,06,25,9.20
2009,05,28,06,26,9.20
2009,05,28,06,27,9.20
2009,05,28,06,28,9.20
2009,05,28,06,29,9.30
2009,05,28,06,30,9.30
2009,05,28,06,31,9.30
2009,05,28,06,32,9.30
2009,05,28,06,33,9.40
2009,05,28,06,34,9.40
2009,05,28,06,35,9.40
2009,05,28,06,36,9.40
2009,05,28,06,37,9.40
2009,05,28,06,38,9.40
2009,05,28,06,39,9.40
2009,05,28,06,40,9.40
2009,05,28,06,41,9.50
2009,05,28,06,42,9.50
2009,05,28,06,43,9.50
2009,05,28,06,44,9.60
2009,05,28,06,45,9.60
2009,05,28,06,46,9.60
2009,05,28,06,47,9.60
2009,05,28,06,48,9.60
2009,05,28,06,49,9.70
2009,05,28,06,50,9.70
2009,05,28,06,51,9.80
2009,05,28,06,52,9.80
2009,05,28,06,53,9.80
2009,05,28,06,54,9.80
2009,05,28,06,55,9.80
2009,05,28,06,56,9.90
2009,05,28,06,57,9.90
2009,05,28,06,58,9.90
2009,05,28,06,59,9.90
2009,05,28,07,00,9.90
2009,05,28,07,01,10.00
2009,05,28,07,02,10.00
2009,05,28,07,03,10.10
2009,05,28,07,04,10.10
2009,05,28,07,05,10.10
2009,05,28,07,06,10.20
2009,05,28,07,07,10.20
2009,05,28,07,08,10.30
2009,05,28,07,09,10.40
2009,05,28,07,10,10.50
2009,05,28,07,11,10.50
2009,05,28,07,12,10.60
2009,05,28,07,13,10.60
2009,05,28,07,14,10.70
2009,05,28,07,15,10.70
2009,05,28,07,16,10.70
2009,05,28,07,17,10.70
2009,05,28,07,18,10.80
2009,05,28,07,19,10.80
2009,05,28,07,20,10.80
2009,05,28,07,21,10.80
2009,05,28,07,22,10.80
2009,05,28,07,23,10.80
2009,05,28,07,24,10.80
2009,05,28,07,25,10.90
2009,05,28,07,26,10.90
2009,05,28,07,27,10.90
2009,05,28,07,28,11.00
2009,05,28,07,29,11.10
2009,05,28,07,30,11.10
2009,05,28,07,31,11.20
2009,05,28,07,32,11.30
2009,05,28,07,33,11.40
2009,05,28,07,34,11.50
2009,05,28,07,35,11.60
2009,05,28,07,36,11.70
2009,05,28,07,37,11.70
2009,05,28,07,38,11.70
2009,05,28,07,39,11.80
2009,05,28,07,40,11.80
2009,05,28,07,41,11.90
2009,05,28,07,42,12.00
2009,05,28,07,43,12.10
2009,05,28,07,44,12.20
2009,05,28,07,45,12.20
2009,05,28,07,46,12.30
2009,05,28,07,47,12.30
2009,05,28,07,48,12.30
2009,05,28,07,49,12.30
2009,05,28,07,50,12.40
2009,05,28,07,51,12.40
2009,05,28,07,52,12.50
2009,05,28,07,53,12.60
2009,05,28,07,54,12.60
2009,05,28,07,55,12.60
2009,05,28,07,56,12.70
2009,05,28,07,57,12.80
2009,05,28,07,58,12.80
2009,05,28,07,59,12.90
2009,05,28,08,00,12.90
2009,05,28,08,01,13.00
2009,05,28,08,02,13.00
2009,05,28,08,03,13.10
2009,05,28,08,04,13.10
2009,05,28,08,05,13.20
2009,05,28,08,06,13.30
2009,05,28,08,07,13.30
2009,05,28,08,08,13.40
2009,05,28,08,09,13.40
2009,05,28,08,10,13.50
2009,05,28,08,11,13.50
2009,05,28,08,12,13.50
2009,05,28,08,13,13.40
2009,05,28,08,14,13.50
2009,05,28,08,15,13.50
2009,05,28,08,16,13.60
2009,05,28,08,17,13.60
2009,05,28,08,18,13.60
2009,05,28,08,19,13.70
2009,05,28,08,20,13.70
2009,05,28,08,21,13.80
2009,05,28,08,22,13.80
2009,05,28,08,23,13.80
2009,05,28,08,24,13.70
2009,05,28,08,25,13.60
2009,05,28,08,26,13.60
2009,05,28,08,27,13.50
2009,05,28,08,28,13.50
2009,05,28,08,29,13.50
2009,05,28,08,30,13.50
2009,05,28,08,31,13.60
2009,05,28,08,32,13.60
2009,05,28,08,33,13.70
2009,05,28,08,34,13.80
2009,05,28,08,35,13.80
2009,05,28,08,36,13.90
2009,05,28,08,37,14.00
2009,05,28,08,38,14.00
2009,05,28,08,39,14.10
2009,05,28,08,40,14.10
2009,05,28,08,41,14.10
2009,05,28,08,42,14.20
2009,05,28,08,43,14.20
2009,05,28,08,44,14.20
2009,05,28,08,45,14.20
2009,05,28,08,46,14.20
2009,05,28,08,47,14.20
2009,05,28,08,48,14.10
2009,05,28,08,49,14.10
2009,05,28,08,50,14.00
2009,05,28,08,51,14.00
2009,05,28,08,52,14.00
2009,05,28,08,53,13.90
2009,05,28,08,54,13.80
2009,05,28,08,55,13.80
2009,05,28,08,56,13.80
2009,05,28,08,57,13.90
2009,05,28,08,58,13.90
2009,05,28,08,59,13.90
2009,05,28,09,00,13.80
2009,05,28,09,01,13.90
2009,05,28,09,02,13.80
2009,05,28,09,03,13.90
2009,05,28,09,04,13.90
2009,05,28,09,05,13.90
2009,05,28,09,06,13.90
2009,05,28,09,07,13.90
2009,05,28,09,08,14.00
2009,05,28,09,09,14.10
2009,05,28,09,10,14.10
2009,05,28,09,11,14.00
2009,05,28,09,12,14.00
2009,05,28,09,13,14.10
2009,05,28,09,14,14.10
2009,05,28,09,15,14.10
2009,05,28,09,16,14.20
2009,05,28,09,17,14.20
2009,05,28,09,18,14.20
2009,05,28,09,19,14.20
2009,05,28,09,20,14.20
2009,05,28,09,21,14.10
2009,05,28,09,22,14.10
2009,05,28,09,23,14.10
2009,05,28,09,24,14.10
2009,05,28,09,25,14.10
2009,05,28,09,26,14.10
2009,05,28,09,27,14.20
2009,05,28,09,28,14.30
2009,05,28,09,29,14.30
2009,05,28,09,30,14.40
2009,05,28,09,31,14.40
2009,05,28,09,32,14.40
2009,05,28,09,33,14.40
2009,05,28,09,34,14.40
2009,05,28,09,35,14.40
2009,05,28,09,36,14.50
2009,05,28,09,37,14.60
2009,05,28,09,38,14.70
2009,05,28,09,39,14.70
2009,05,28,09,40,14.70
2009,05,28,09,41,14.70
2009,05,28,09,42,14.80
2009,05,28,09,43,14.80
2009,05,28,09,44,14.80
2009,05,28,09,45,14.80
2009,05,28,09,46,14.80
2009,05,28,09,47,15.00
2009,05,28,09,48,15.00
2009,05,28,09,49,15.00
2009,05,28,09,50,15.10
2009,05,28,09,51,15.20
2009,05,28,09,52,15.20
2009,05,28,09,53,15.10
2009,05,28,09,54,15.00
2009,05,28,09,55,15.00
2009,05,28,09,56,15.00
2009,05,28,09,57,15.00
2009,05,28,09,58,15.10
2009,05,28,09,59,15.00
2009,05,28,10,00,15.00
2009,05,28,10,01,15.00
2009,05,28,10,02,15.00
2009,05,28,10,03,15.00
2009,05,28,10,04,15.10
2009,05,28,10,05,15.20
2009,05,28,10,06,15.20
2009,05,28,10,07,15.30
2009,05,28,10,08,15.30
2009,05,28,10,09,15.30
2009,05,28,10,10,15.30
2009,05,28,10,11,15.30
2009,05,28,10,12,15.30
2009,05,28,10,13,15.30
2009,05,28,10,14,15.40
2009,05,28,10,15,15.40
2009,05,28,10,16,15.40
2009,05,28,10,17,15.40
2009,05,28,10,18,15.50
2009,05,28,10,19,15.50
2009,05,28,10,20,15.50
2009,05,28,10,21,15.40
2009,05,28,10,22,15.40
2009,05,28,10,23,15.20
2009,05,28,10,24,15.10
2009,05,28,10,25,15.10
2009,05,28,10,26,15.10
2009,05,28,10,27,15.20
2009,05,28,10,28,15.30
2009,05,28,10,29,15.40
2009,05,28,10,30,15.40
2009,05,28,10,31,15.50
2009,05,28,10,32,15.50
2009,05,28,10,33,15.50
2009,05,28,10,34,15.60
2009,05,28,10,35,15.70
2009,05,28,10,36,15.70
2009,05,28,10,37,15.90
2009,05,28,10,38,16.10
2009,05,28,10,39,16.20
2009,05,28,10,40,16.30
2009,05,28,10,41,16.50
2009,05,28,10,42,16.50
2009,05,28,10,43,16.50
2009,05,28,10,44,16.40
2009,05,28,10,45,16.40
2009,05,28,10,46,16.30
2009,05,28,10,47,16.30
2009,05,28,10,48,16.30
2009,05,28,10,49,16.30
2009,05,28,10,50,16.30
2009,05,28,10,51,16.30
2009,05,28,10,52,16.20
2009,05,28,10,53,16.20
2009,05,28,10,54,16.20
2009,05,28,10,55,16.10
2009,05,28,10,56,16.10
2009,05,28,10,57,16.10
2009,05,28,10,58,16.20
2009,05,28,10,59,16.30
2009,05,28,11,00,16.50
2009,05,28,11,01,16.60
2009,05,28,11,02,16.70
2009,05,28,11,03,16.80
2009,05,28,11,04,16.80
2009,05,28,11,05,16.80
2009,05,28,11,06,16.80
2009,05,28,11,07,16.80
2009,05,28,11,08,16.80
2009,05,28,11,09,16.80
2009,05,28,11,10,16.80
2009,05,28,11,11,16.80
2009,05,28,11,12,16.80
2009,05,28,11,13,16.80
2009,05,28,11,14,16.70
2009,05,28,11,15,16.60
2009,05,28,11,16,16.50
2009,05,28,11,17,16.60
2009,05,28,11,18,16.60
2009,05,28,11,19,16.60
2009,05,28,11,20,16.70
2009,05,28,11,21,16.80
2009,05,28,11,22,16.80
2009,05,28,11,23,16.80
2009,05,28,11,24,16.80
2009,05,28,11,25,16.80
2009,05,28,11,26,16.90
2009,05,28,11,27,17.00
2009,05,28,11,28,17.20
2009,05,28,11,29,17.30
2009,05,28,11,30,17.40
2009,05,28,11,31,17.40
2009,05,28,11,32,17.40
2009,05,28,11,33,17.40
2009,05,28,11,34,17.30
2009,05,28,11,35,17.20
2009,05,28,11,36,17.20
2009,05,28,11,37,17.10
2009,05,28,11,38,17.10
2009,05,28,11,39,17.00
2009,05,28,11,40,17.00
2009,05,28,11,41,16.90
2009,05,28,11,42,16.90
2009,05,28,11,43,17.00
2009,05,28,11,44,17.10
2009,05,28,11,45,17.20
2009,05,28,11,46,17.20
2009,05,28,11,47,17.20
2009,05,28,11,48,17.20
2009,05,28,11,49,17.20
2009,05,28,11,50,17.10
2009,05,28,11,51,17.20
2009,05,28,11,52,17.20
2009,05,28,11,53,17.30
2009,05,28,11,54,17.30
2009,05,28,11,55,17.30
2009,05,28,11,56,17.30
2009,05,28,11,57,17.40
2009,05,28,11,58,17.40
2009,05,28,11,59,17.40
2009,05,28,12,00,17.40
2009,05,28,12,01,17.40
2009,05,28,12,02,17.40
2009,05,28,12,03,17.40
2009,05,28,12,04,17.50
2009,05,28,12,05,17.70
2009,05,28,12,06,17.80
2009,05,28,12,07,17.80
2009,05,28,12,08,17.80
2009,05,28,12,09,17.90
2009,05,28,12,10,18.00
2009,05,28,12,11,18.00
2009,05,28,12,12,18.10
2009,05,28,12,13,18.30
2009,05,28,12,14,18.40
2009,05,28,12,15,18.50
2009,05,28,12,16,18.60
2009,05,28,12,17,18.70
2009,05,28,12,18,18.80
2009,05,28,12,19,18.80
2009,05,28,12,20,18.60
2009,05,28,12,21,18.50
2009,05,28,12,22,18.40
2009,05,28,12,23,18.30
2009,05,28,12,24,18.20
2009,05,28,12,25,18.20
2009,05,28,12,26,18.10
2009,05,28,12,27,18.20
2009,05,28,12,28,18.20
2009,05,28,12,29,18.10
2009,05,28,12,30,18.10
2009,05,28,12,31,18.20
2009,05,28,12,32,18.30
2009,05,28,12,33,18.30
2009,05,28,12,34,18.30
2009,05,28,12,35,18.30
2009,05,28,12,36,18.30
2009,05,28,12,37,18.30
2009,05,28,12,38,18.30
2009,05,28,12,39,18.40
2009,05,28,12,40,18.50
2009,05,28,12,41,18.60
2009,05,28,12,42,18.60
2009,05,28,12,43,18.60
2009,05,28,12,44,18.60
2009,05,28,12,45,18.70
2009,05,28,12,46,18.70
2009,05,28,12,47,18.70
2009,05,28,12,48,18.70
2009,05,28,12,49,18.80
2009,05,28,12,50,18.60
2009,05,28,12,51,18.60
2009,05,28,12,52,18.50
2009,05,28,12,53,18.50
2009,05,28,12,54,18.40
2009,05,28,12,55,18.50
2009,05,28,12,56,18.50
2009,05,28,12,57,18.70
2009,05,28,12,58,18.80
2009,05,28,12,59,18.90
2009,05,28,13,00,19.00
2009,05,28,13,01,19.10
2009,05,28,13,02,19.30
2009,05,28,13,03,19.30
2009,05,28,13,04,19.20
2009,05,28,13,05,19.10
2009,05,28,13,06,19.00
2009,05,28,13,07,18.90
2009,05,28,13,08,18.90
2009,05,28,13,09,19.00
2009,05,28,13,10,19.10
2009,05,28,13,11,19.10
2009,05,28,13,12,19.10
2009,05,28,13,13,19.10
2009,05,28,13,14,19.10
2009,05,28,13,15,19.00
2009,05,28,13,16,19.00
2009,05,28,13,17,19.00
2009,05,28,13,18,19.00
2009,05,28,13,19,19.00
2009,05,28,13,20,19.10
2009,05,28,13,21,19.30
2009,05,28,13,22,19.30
2009,05,28,13,23,19.20
2009,05,28,13,24,19.20
2009,05,28,13,25,19.20
2009,05,28,13,26,19.20
2009,05,28,13,27,19.20
2009,05,28,13,28,19.20
2009,05,28,13,29,19.20
2009,05,28,13,30,19.30
2009,05,28,13,31,19.30
2009,05,28,13,32,19.20
2009,05,28,13,33,19.20
2009,05,28,13,34,19.20
2009,05,28,13,35,19.20
2009,05,28,13,36,19.10
2009,05,28,13,37,19.10
2009,05,28,13,38,19.10
2009,05,28,13,39,19.20
2009,05,28,13,40,19.20
2009,05,28,13,41,19.20
2009,05,28,13,42,19.30
2009,05,28,13,43,19.50
2009,05,28,13,44,19.60
2009,05,28,13,45,19.60
2009,05,28,13,46,19.60
2009,05,28,13,47,19.60
2009,05,28,13,48,19.40
2009,05,28,13,49,19.40
2009,05,28,13,50,19.30
2009,05,28,13,51,19.30
2009,05,28,13,52,19.30
2009,05,28,13,53,19.30
2009,05,28,13,54,19.40
2009,05,28,13,55,19.50
2009,05,28,13,56,19.50
2009,05,28,13,57,19.60
2009,05,28,13,58,19.60
2009,05,28,13,59,19.60
2009,05,28,14,00,19.50
2009,05,28,14,01,19.60
2009,05,28,14,02,19.60
2009,05,28,14,03,19.60
2009,05,28,14,04,19.60
2009,05,28,14,05,19.60
2009,05,28,14,06,19.70
2009,05,28,14,07,19.70
2009,05,28,14,08,19.70
2009,05,28,14,09,19.70
2009,05,28,14,10,19.80
2009,05,28,14,11,19.70
2009,05,28,14,12,19.60
2009,05,28,14,13,19.60
2009,05,28,14,14,19.50
2009,05,28,14,15,19.40
2009,05,28,14,16,19.40
2009,05,28,14,17,19.50
2009,05,28,14,18,19.50
2009,05,28,14,19,19.50
2009,05,28,14,20,19.60
2009,05,28,14,21,19.60
2009,05,28,14,22,19.60
2009,05,28,14,23,19.80
2009,05,28,14,24,19.80
2009,05,28,14,25,19.90
2009,05,28,14,26,19.90
2009,05,28,14,27,20.00
2009,05,28,14,28,20.10
2009,05,28,14,29,20.20
2009,05,28,14,30,20.30
2009,05,28,14,31,20.40
2009,05,28,14,32,20.60
2009,05,28,14,33,20.60
2009,05,28,14,34,20.60
2009,05,28,14,35,20.60
2009,05,28,14,36,20.50
2009,05,28,14,37,20.30
2009,05,28,14,38,20.20
2009,05,28,14,39,20.20
2009,05,28,14,40,20.40
2009,05,28,14,41,20.50
2009,05,28,14,42,20.50
2009,05,28,14,43,20.60
2009,05,28,14,44,20.60
2009,05,28,14,45,20.60
2009,05,28,14,46,20.60
2009,05,28,14,47,20.70
2009,05,28,14,48,20.80
2009,05,28,14,49,20.80
2009,05,28,14,50,20.80
2009,05,28,14,51,20.80
2009,05,28,14,52,20.80
2009,05,28,14,53,20.80
2009,05,28,14,54,20.80
2009,05,28,14,55,20.80
2009,05,28,14,56,20.80
2009,05,28,14,57,20.70
2009,05,28,14,58,20.60
2009,05,28,14,59,20.50
2009,05,28,15,00,20.40
2009,05,28,15,01,20.40
2009,05,28,15,02,20.30
2009,05,28,15,03,20.20
2009,05,28,15,04,20.10
2009,05,28,15,05,20.00
2009,05,28,15,06,19.90
2009,05,28,15,07,19.90
2009,05,28,15,08,19.90
2009,05,28,15,09,20.00
2009,05,28,15,10,20.10
2009,05,28,15,11,20.10
2009,05,28,15,12,20.10
2009,05,28,15,13,20.10
2009,05,28,15,14,20.10
2009,05,28,15,15,20.30
2009,05,28,15,16,20.50
2009,05,28,15,17,20.60
2009,05,28,15,18,20.60
2009,05,28,15,19,20.80
2009,05,28,15,20,20.80
2009,05,28,15,21,20.80
2009,05,28,15,22,20.80
2009,05,28,15,23,20.90
2009,05,28,15,24,20.90
2009,05,28,15,25,21.00
2009,05,28,15,26,20.90
2009,05,28,15,27,20.90
2009,05,28,15,28,20.90
2009,05,28,15,29,20.90
2009,05,28,15,30,20.90
2009,05,28,15,31,20.90
2009,05,28,15,32,21.00
2009,05,28,15,33,21.10
2009,05,28,15,34,21.10
2009,05,28,15,35,21.10
2009,05,28,15,36,21.00
2009,05,28,15,37,20.90
2009,05,28,15,38,20.90
2009,05,28,15,39,20.80
2009,05,28,15,40,20.80
2009,05,28,15,41,20.80
2009,05,28,15,42,20.90
2009,05,28,15,43,20.90
2009,05,28,15,44,20.90
2009,05,28,15,45,20.90
2009,05,28,15,46,20.80
2009,05,28,15,47,20.80
2009,05,28,15,48,20.70
2009,05,28,15,49,20.60
2009,05,28,15,50,20.60
2009,05,28,15,51,20.60
2009,05,28,15,52,20.70
2009,05,28,15,53,20.80
2009,05,28,15,54,20.90
2009,05,28,15,55,20.90
2009,05,28,15,56,20.90
2009,05,28,15,57,20.90
2009,05,28,15,58,20.90
2009,05,28,15,59,20.90
2009,05,28,16,00,20.80
2009,05,28,16,01,20.80
2009,05,28,16,02,20.80
2009,05,28,16,03,20.80
2009,05,28,16,04,20.80
2009,05,28,16,05,20.90
2009,05,28,16,06,20.90
2009,05,28,16,07,20.90
2009,05,28,16,08,20.90
2009,05,28,16,09,20.90
2009,05,28,16,10,21.00
2009,05,28,16,11,21.10
2009,05,28,16,12,21.10
2009,05,28,16,13,21.20
2009,05,28,16,14,21.30
2009,05,28,16,15,21.30
2009,05,28,16,16,21.40
2009,05,28,16,17,21.50
2009,05,28,16,18,21.50
2009,05,28,16,19,21.50
2009,05,28,16,20,21.60
2009,05,28,16,21,21.60
2009,05,28,16,22,21.70
2009,05,28,16,23,21.70
2009,05,28,16,24,21.80
2009,05,28,16,25,21.80
2009,05,28,16,26,21.90
2009,05,28,16,27,21.90
2009,05,28,16,28,21.90
2009,05,28,16,29,21.90
2009,05,28,16,30,21.80
2009,05,28,16,31,21.80
2009,05,28,16,32,21.80
2009,05,28,16,33,21.80
2009,05,28,16,34,21.80
2009,05,28,16,35,21.80
2009,05,28,16,36,21.80
2009,05,28,16,37,21.90
2009,05,28,16,38,21.90
2009,05,28,16,39,22.00
2009,05,28,16,40,22.10
2009,05,28,16,41,22.10
2009,05,28,16,42,22.20
2009,05,28,16,43,22.30
2009,05,28,16,44,22.40
2009,05,28,16,45,22.40
2009,05,28,16,46,22.50
2009,05,28,16,47,22.30
2009,05,28,16,48,22.10
2009,05,28,16,49,22.00
2009,05,28,16,50,22.00
2009,05,28,16,51,22.10
2009,05,28,16,52,22.10
2009,05,28,16,53,22.10
2009,05,28,16,54,22.00
2009,05,28,16,55,22.00
2009,05,28,16,56,22.00
2009,05,28,16,57,22.00
2009,05,28,16,58,21.90
2009,05,28,16,59,21.90
2009,05,28,17,00,21.90
2009,05,28,17,01,21.90
2009,05,28,17,02,21.80
2009,05,28,17,03,21.80
2009,05,28,17,04,21.80
2009,05,28,17,05,21.80
2009,05,28,17,06,21.70
2009,05,28,17,07,21.70
2009,05,28,17,08,21.70
2009,05,28,17,09,21.70
2009,05,28,17,10,21.80
2009,05,28,17,11,22.00
2009,05,28,17,12,22.10
2009,05,28,17,13,22.20
2009,05,28,17,14,22.30
2009,05,28,17,15,22.30
2009,05,28,17,16,22.40
2009,05,28,17,17,22.50
2009,05,28,17,18,22.50
2009,05,28,17,19,22.50
2009,05,28,17,20,22.40
2009,05,28,17,21,22.40
2009,05,28,17,22,22.30
2009,05,28,17,23,22.30
2009,05,28,17,24,22.30
2009,05,28,17,25,22.20
2009,05,28,17,26,22.20
2009,05,28,17,27,22.20
2009,05,28,17,28,22.10
2009,05,28,17,29,22.00
2009,05,28,17,30,22.00
2009,05,28,17,31,22.00
2009,05,28,17,32,22.00
2009,05,28,17,33,22.00
2009,05,28,17,34,22.00
2009,05,28,17,35,21.90
2009,05,28,17,36,22.00
2009,05,28,17,37,22.10